K8SRP Weather Reports


time (UTC)temp
C
wind
direction
speed
KPH
gust
KPH
rain 1hr
cm
rain 24hr
cm
rain mn
cm
humidity
%
barometer
mb
20260509124054 10 0 0.0 6.4 0.00 0.00 0.00 90 1001.4
20260509123554 10 0 0.0 6.4 0.00 0.00 0.00 91 1001.2
20260509123058 10 0 0.0 6.4 0.00 0.00 0.00 91 1001.3
20260509122554 10 0 0.0 4.8 0.00 0.00 0.00 91 1001.4
20260509122053 10 0 0.0 12.9 0.00 0.00 0.00 91 1001.4
20260509121552 10 0 0.0 12.9 0.00 0.00 0.00 91 1001.4
20260509121057 10 0 0.0 8.0 0.00 0.00 0.00 91 1001.3
20260509120554 10 0 0.0 14.5 0.00 0.00 0.00 91 1001.5
20260509120055 10 0 0.0 14.5 0.00 0.00 0.00 91 1001.3
20260509115556 10 223 0.0 9.7 0.00 0.00 0.00 91 1001.3
20260509115054 10 0 0.0 9.7 0.00 0.00 0.00 91 1001.3
20260509114554 10 0 0.0 8.0 0.00 0.00 0.00 91 1001.3
20260509114054 10 0 0.0 17.7 0.00 0.00 0.00 91 1001.3
20260509113557 10 0 1.6 17.7 0.00 0.00 0.00 91 1001.3
20260509113113 10 0 0.0 11.3 0.00 0.00 0.00 91 1001.3
20260509112555 10 0 0.0 11.3 0.00 0.00 0.00 91 1001.1
20260509112054 10 0 0.0 11.3 0.00 0.00 0.00 91 1000.9
20260509111602 10 0 0.0 11.3 0.00 0.00 0.00 91 1000.9
20260509111054 10 0 0.0 12.9 0.00 0.00 0.00 91 1000.8
20260509110553 10 0 0.0 17.7 0.00 0.00 0.00 91 1000.8
20260509110052 10 0 0.0 17.7 0.00 0.00 0.00 91 1000.7
20260509105554 10 0 0.0 4.8 0.00 0.00 0.00 92 1000.8
20260509105054 10 0 0.0 4.8 0.00 0.00 0.00 91 1000.8
20260509104559 10 0 0.0 8.0 0.00 0.00 0.00 92 1000.7
20260509104058 10 0 0.0 8.0 0.00 0.00 0.00 92 1000.9
20260509103554 10 143 0.0 8.0 0.00 0.00 0.00 92 1000.9
20260509103058 10 0 0.0 16.1 0.00 0.00 0.00 91 1000.9
20260509102554 10 0 0.0 16.1 0.00 0.00 0.00 91 1000.8
20260509102055 10 0 0.0 17.7 0.00 0.00 0.00 91 1001.0
20260509101555 10 256 0.0 17.7 0.00 0.00 0.00 91 1001.0
20260509101054 10 0 0.0 11.3 0.00 0.00 0.00 91 1001.0
20260509100554 10 0 0.0 12.9 0.00 0.00 0.00 91 1000.9
20260509100109 10 0 0.0 24.1 0.00 0.00 0.00 91 1000.9
20260509095554 10 0 0.0 24.1 0.00 0.00 0.00 91 1001.0
20260509095055 10 233 0.0 12.9 0.00 0.00 0.00 91 1000.9
20260509094556 10 0 0.0 12.9 0.00 0.00 0.00 91 1001.0
20260509094054 10 0 0.0 11.3 0.00 0.00 0.00 91 1001.1
20260509093554 10 0 0.0 11.3 0.00 0.00 0.00 91 1001.1
20260509093053 10 0 0.0 11.3 0.00 0.00 0.00 91 1001.2
20260509092556 10 0 0.0 8.0 0.00 0.00 0.00 91 1001.3
20260509092054 10 0 0.0 8.0 0.00 0.00 0.00 91 1001.3
20260509091611 10 0 0.0 8.0 0.00 0.00 0.00 91 1001.4
20260509091054 10 0 0.0 8.0 0.00 0.00 0.00 91 1001.5
20260509090554 10 0 0.0 16.1 0.00 0.00 0.00 91 1001.6
20260509090054 10 205 0.0 16.1 0.00 0.00 0.00 91 1001.7
20260509085558 10 0 0.0 6.4 0.00 0.00 0.00 91 1001.7
20260509085057 10 252 0.0 3.2 0.00 0.00 0.00 91 1001.7
20260509084557 10 0 0.0 1.6 0.00 0.00 0.00 90 1001.7
20260509084055 10 0 0.0 3.2 0.00 0.00 0.00 90 1001.7
20260509083554 10 0 0.0 6.4 0.00 0.00 0.00 89 1001.8
20260509083056 10 0 0.0 6.4 0.00 0.00 0.00 89 1001.8
20260509082553 10 0 0.0 8.0 0.00 0.00 0.00 89 1001.9
20260509082055 10 0 0.0 8.0 0.00 0.00 0.00 89 1002.1
20260509081558 10 0 0.0 8.0 0.00 0.00 0.00 89 1002.1
20260509081054 10 0 0.0 8.0 0.00 0.00 0.00 89 1002.1
20260509080554 10 0 0.0 16.1 0.00 0.00 0.00 89 1002.1
20260509080101 10 226 0.0 16.1 0.00 0.00 0.00 89 1002.3
20260509075553 10 0 0.0 6.4 0.00 0.00 0.00 89 1002.3
20260509075054 10 0 0.0 4.8 0.00 0.00 0.00 89 1002.3
20260509074554 10 0 0.0 3.2 0.00 0.00 0.00 89 1002.3
20260509074054 10 0 0.0 1.6 0.00 0.00 0.00 89 1002.6
20260509073557 10 0 0.0 1.6 0.00 0.00 0.00 88 1002.5
20260509073104 10 0 0.0 8.0 0.00 0.00 0.00 88 1002.5
20260509072554 10 0 0.0 11.3 0.00 0.00 0.00 88 1002.6
20260509072053 10 0 0.0 11.3 0.00 0.00 0.00 88 1002.8
20260509071556 10 136 0.0 8.0 0.00 0.00 0.00 88 1002.8
20260509071054 10 0 0.0 14.5 0.00 0.00 0.00 87 1002.8
20260509070554 11 186 0.0 14.5 0.00 0.00 0.00 87 1002.9
20260509070059 11 0 0.0 14.5 0.00 0.00 0.00 86 1003.1
20260509065554 11 208 0.0 14.5 0.00 0.00 0.00 85 1003.2
20260509065054 11 0 0.0 12.9 0.00 0.00 0.00 84 1003.2
20260509064554 11 0 0.0 12.9 0.00 0.00 0.00 83 1003.2
20260509064055 11 0 1.6 11.3 0.00 0.00 0.00 82 1003.4
20260509063555 12 0 0.0 14.5 0.00 0.00 0.00 80 1003.4
20260509063100 12 0 0.0 14.5 0.00 0.00 0.00 78 1003.6
20260509062553 12 0 0.0 17.7 0.00 0.00 0.00 76 1003.5
20260509062053 12 0 0.0 17.7 0.00 0.00 0.00 73 1003.4
20260509061606 12 225 0.0 11.3 0.00 0.00 0.00 69 1003.4
20260509061053 12 0 0.0 6.4 0.00 0.00 0.00 67 1003.6
20260509060554 13 171 0.0 11.3 0.00 0.00 0.00 64 1003.7
20260509060054 13 0 0.0 11.3 0.00 0.00 0.00 61 1003.7
20260509055558 13 0 1.6 11.3 0.00 0.00 0.00 58 1003.8
20260509055053 13 0 0.0 11.3 0.00 0.00 0.00 55 1003.8
20260509054559 13 0 0.0 20.9 0.00 0.00 0.00 54 1003.7
20260509054053 13 0 1.6 20.9 0.00 0.00 0.00 52 1003.7
20260509053554 13 236 1.6 20.9 0.00 0.00 0.00 51 1003.8
20260509053101 13 0 0.0 12.9 0.00 0.00 0.00 50 1003.9
20260509052553 13 0 0.0 8.0 0.00 0.00 0.00 50 1004.0
20260509052057 13 0 0.0 19.3 0.00 0.00 0.00 50 1003.9
20260509051554 13 0 0.0 19.3 0.00 0.00 0.00 50 1003.9
20260509051053 13 177 0.0 9.7 0.00 0.00 0.00 50 1003.8
20260509050553 12 0 0.0 9.7 0.00 0.00 0.00 50 1003.9
20260509050051 12 0 0.0 4.8 0.00 0.00 0.00 51 1004.0
20260509045553 11 0 0.0 4.8 0.00 0.00 0.00 52 1003.9
20260509045054 11 0 0.0 6.4 0.00 0.00 0.00 53 1003.9
20260509044557 11 0 0.0 6.4 0.00 0.00 0.00 54 1004.1
20260509044054 11 0 0.0 1.6 0.00 0.00 0.00 54 1004.1
20260509043557 11 0 0.0 0.0 0.00 0.00 0.00 55 1004.0
20260509043100 11 0 0.0 0.0 0.00 0.00 0.00 55 1004.0
20260509042554 11 0 0.0 0.0 0.00 0.00 0.00 55 1004.1
20260509042057 11 0 0.0 0.0 0.00 0.00 0.00 55 1004.1
20260509041552 11 0 0.0 0.0 0.00 0.00 0.00 56 1004.1
20260509041054 11 0 0.0 0.0 0.00 0.00 0.00 57 1004.2
20260509040553 11 0 0.0 0.0 0.00 0.00 0.00 57 1004.3
20260509040057 11 0 0.0 0.0 0.00 0.00 0.00 57 1004.4
20260509035555 12 0 0.0 0.0 0.00 0.00 0.00 57 1004.5
20260509035053 12 0 0.0 0.0 0.00 0.00 0.00 56 1004.5
20260509034601 12 0 0.0 0.0 0.00 0.00 0.00 57 1004.5
20260509034053 12 0 0.0 0.0 0.00 0.00 0.00 56 1004.6
20260509033554 12 0 0.0 1.6 0.00 0.00 0.00 55 1004.7
20260509033056 12 0 0.0 1.6 0.00 0.00 0.00 53 1004.7
20260509032554 12 0 0.0 1.6 0.00 0.00 0.00 51 1004.9
20260509032053 12 0 0.0 3.2 0.00 0.00 0.00 48 1004.9
20260509031602 12 0 0.0 3.2 0.00 0.00 0.00 45 1004.9
20260509031054 12 0 0.0 3.2 0.00 0.00 0.00 42 1004.9
20260509030554 12 0 0.0 3.2 0.00 0.00 0.00 39 1005.1
20260509030056 12 0 0.0 1.6 0.00 0.00 0.00 37 1005.1
20260509025553 11 0 0.0 0.0 0.00 0.00 0.00 36 1005.2
20260509025057 11 0 0.0 4.8 0.00 0.00 0.00 37 1005.2
20260509024556 11 0 0.0 4.8 0.00 0.00 0.00 36 1005.2
20260509024054 11 0 0.0 4.8 0.00 0.00 0.00 36 1005.2
20260509023555 11 0 0.0 1.6 0.00 0.00 0.00 36 1005.3
20260509023100 11 0 0.0 6.4 0.00 0.00 0.00 36 1005.3
20260509022553 11 0 0.0 6.4 0.00 0.00 0.00 36 1005.3
20260509022053 11 0 0.0 0.0 0.00 0.00 0.00 37 1005.4
20260509021559 10 0 0.0 1.6 0.00 0.00 0.00 37 1005.4
20260509021053 10 0 0.0 1.6 0.00 0.00 0.00 38 1005.5
20260509020553 9 0 0.0 1.6 0.00 0.00 0.00 40 1005.5
20260509020056 9 0 0.0 0.0 0.00 0.00 0.00 40 1005.5
20260509015553 8 0 0.0 0.0 0.00 0.00 0.00 43 1005.4
20260509015053 9 0 0.0 0.0 0.00 0.00 0.00 43 1005.5
20260509014600 9 0 0.0 0.0 0.00 0.00 0.00 45 1005.5
20260509014052 9 0 0.0 0.0 0.00 0.00 0.00 43 1005.5
20260509013554 9 0 0.0 0.0 0.00 0.00 0.00 42 1005.5
20260509013058 10 0 0.0 0.0 0.00 0.00 0.00 43 1005.4
20260509012554 10 0 0.0 0.0 0.00 0.00 0.00 41 1005.3
20260509012056 10 0 0.0 0.0 0.00 0.00 0.00 42 1005.3
20260509011553 11 0 0.0 0.0 0.00 0.00 0.00 40 1005.3
20260509011053 11 0 0.0 0.0 0.00 0.00 0.00 37 1005.4
20260509010553 11 0 0.0 0.0 0.00 0.00 0.00 38 1005.3
20260509010054 12 0 0.0 0.0 0.00 0.00 0.00 35 1005.4
20260509005553 12 0 0.0 0.0 0.00 0.00 0.00 32 1005.4
20260509005054 12 0 0.0 0.0 0.00 0.00 0.00 31 1005.3
20260509004553 12 0 0.0 0.0 0.00 0.00 0.00 30 1005.4
20260509004053 12 0 0.0 0.0 0.00 0.00 0.00 29 1005.4
20260509003553 13 0 0.0 0.0 0.00 0.00 0.00 29 1005.4
20260509003106 13 0 0.0 0.0 0.00 0.00 0.00 30 1005.4
20260509002553 13 0 0.0 0.0 0.00 0.00 0.00 28 1005.5
20260509002054 13 0 0.0 0.0 0.00 0.00 0.00 27 1005.4
20260509001559 13 0 0.0 0.0 0.00 0.00 0.00 28 1005.5
20260509001054 13 0 0.0 0.0 0.00 0.00 0.00 28 1005.6
20260509000553 13 0 0.0 1.6 0.00 0.00 0.00 27 1005.7
20260509000104 13 0 0.0 1.6 0.00 0.00 0.00 28 1005.7
20260508235554 13 0 0.0 1.6 0.00 0.00 0.00 28 1005.7
20260508235054 13 0 0.0 1.6 0.00 0.00 0.00 29 1005.9
20260508234559 13 0 0.0 6.4 0.00 0.00 0.00 29 1005.8
20260508234053 13 0 0.0 6.4 0.00 0.00 0.00 29 1005.9
20260508233553 13 0 0.0 6.4 0.00 0.00 0.00 31 1006.0
20260508233105 13 0 0.0 1.6 0.00 0.00 0.00 30 1006.0
20260508232553 13 0 0.0 9.7 0.00 0.00 0.00 32 1006.1
20260508232054 13 0 0.0 9.7 0.00 0.00 0.00 33 1006.1
20260508231632 13 0 0.0 6.4 0.00 0.00 0.00 32 1006.1
20260508231053 13 0 0.0 3.2 0.00 0.00 0.00 33 1006.2
20260508230553 14 0 0.0 6.4 0.00 0.00 0.00 34 1006.3
20260508225554 14 229 0.0 6.4 0.00 0.00 0.00 34 1006.2
20260508225053 14 0 0.0 9.7 0.00 0.00 0.00 34 1006.5
20260508224608 14 0 0.0 9.7 0.00 0.00 0.00 34 1006.6
20260508224054 14 0 0.0 12.9 0.00 0.00 0.00 34 1006.5
20260508223554 14 0 0.0 12.9 0.00 0.00 0.00 35 1006.6
20260508223058 15 0 0.0 8.0 0.00 0.00 0.00 35 1006.8
20260508222554 15 0 0.0 8.0 0.00 0.00 0.00 36 1006.7
20260508222053 15 0 0.0 11.3 0.00 0.00 0.00 35 1006.7
20260508221616 15 0 0.0 11.3 0.00 0.00 0.00 36 1006.9
20260508221054 15 211 0.0 9.7 0.00 0.00 0.00 35 1006.8
20260508220553 15 231 0.0 9.7 0.00 0.00 0.00 37 1007.0
20260508220104 15 0 0.0 9.7 0.00 0.00 0.00 36 1007.0
20260508215553 15 0 0.0 8.0 0.00 0.00 0.00 39 1007.0
20260508215053 15 0 0.0 9.7 0.00 0.00 0.00 38 1007.0
20260508214639 15 0 0.0 9.7 0.00 0.00 0.00 40 1007.1
20260508214056 15 227 1.6 14.5 0.00 0.00 0.00 40 1007.1
20260508213556 15 0 0.0 14.5 0.00 0.00 0.00 38 1007.1
20260508213057 15 0 0.0 14.5 0.00 0.00 0.00 42 1007.1
20260508212553 15 0 0.0 6.4 0.00 0.00 0.00 40 1007.2
20260508212055 15 0 0.0 8.0 0.00 0.00 0.00 43 1007.2
20260508211556 15 0 0.0 8.0 0.00 0.00 0.00 42 1007.2
20260508211054 15 0 0.0 8.0 0.00 0.00 0.00 45 1007.2
20260508210553 15 0 0.0 12.9 0.00 0.00 0.00 45 1007.3
20260508210100 15 0 0.0 14.5 0.00 0.00 0.00 46 1007.4
20260508205554 15 0 1.6 14.5 0.00 0.00 0.00 44 1007.4
20260508205054 15 0 0.0 12.9 0.00 0.00 0.00 44 1007.5
20260508204555 15 0 0.0 12.9 0.00 0.00 0.00 46 1007.6
20260508204054 15 0 0.0 11.3 0.00 0.00 0.00 48 1007.7
20260508203555 15 0 0.0 12.9 0.00 0.00 0.00 52 1007.8
20260508203115 15 0 0.0 17.7 0.00 0.00 0.00 52 1007.9
20260508202554 15 275 0.0 17.7 0.00 0.00 0.00 53 1007.9
20260508202055 15 223 1.6 11.3 0.00 0.00 0.00 52 1007.9
20260508201555 15 0 0.0 14.5 0.00 0.00 0.00 55 1007.9
20260508201055 15 0 0.0 14.5 0.00 0.00 0.00 54 1008.0
20260508200556 15 0 0.0 14.5 0.00 0.00 0.00 55 1008.0
20260508200057 15 0 0.0 6.4 0.00 0.00 0.00 54 1008.2
20260508195555 15 0 0.0 3.2 0.00 0.00 0.00 54 1008.2
20260508195056 15 0 0.0 4.8 0.00 0.00 0.00 56 1008.2
20260508194555 15 0 0.0 4.8 0.00 0.00 0.00 57 1008.3
20260508194054 15 0 0.0 6.4 0.00 0.00 0.00 56 1008.3
20260508193554 15 0 0.0 6.4 0.00 0.00 0.00 59 1008.4
20260508193127 15 0 0.0 8.0 0.00 0.00 0.00 62 1008.5
20260508192554 15 0 0.0 8.0 0.00 0.00 0.00 60 1008.6
20260508192055 15 0 0.0 12.9 0.00 0.00 0.00 63 1008.6
20260508191603 15 0 0.0 12.9 0.00 0.00 0.00 63 1008.5
20260508191055 15 0 0.0 6.4 0.00 0.00 0.00 57 1008.6
20260508190555 15 0 0.0 6.4 0.00 0.00 0.00 57 1008.7
20260508190057 15 0 0.0 8.0 0.00 0.00 0.00 62 1008.7
20260508185556 15 0 0.0 8.0 0.00 0.00 0.00 59 1008.9
20260508185055 16 0 0.0 16.1 0.00 0.00 0.00 59 1008.9
20260508184556 16 0 0.0 16.1 0.00 0.00 0.00 62 1009.0
20260508184055 15 0 0.0 14.5 0.00 0.00 0.00 63 1008.9
20260508183554 15 0 0.0 11.3 0.00 0.00 0.00 62 1009.0
20260508183057 15 0 0.0 11.3 0.00 0.00 0.00 61 1008.9
20260508182555 15 0 0.0 12.9 0.00 0.00 0.00 60 1009.0
20260508182056 15 0 0.0 12.9 0.00 0.00 0.00 58 1009.0
20260508181557 15 0 0.0 12.9 0.00 0.00 0.00 54 1009.0
20260508181054 15 0 0.0 9.7 0.00 0.00 0.00 54 1009.1
20260508180554 15 0 0.0 4.8 0.00 0.00 0.00 54 1009.1
20260508180114 15 0 0.0 12.9 0.00 0.00 0.00 56 1009.3
20260508175555 15 0 0.0 12.9 0.00 0.00 0.00 56 1009.3
20260508175054 15 0 0.0 4.8 0.00 0.00 0.00 52 1009.3
20260508174611 15 0 0.0 4.8 0.00 0.00 0.00 53 1009.4
20260508174055 15 0 0.0 8.0 0.00 0.00 0.00 55 1009.4
20260508173555 15 233 0.0 8.0 0.00 0.00 0.00 55 1009.5
20260508173057 15 0 0.0 6.4 0.00 0.00 0.00 51 1009.7
20260508172557 15 0 0.0 11.3 0.00 0.00 0.00 52 1009.6
20260508172055 15 232 0.0 11.3 0.00 0.00 0.00 49 1009.7
20260508171555 16 0 0.0 8.0 0.00 0.00 0.00 46 1009.7
20260508171058 16 0 0.0 3.2 0.00 0.00 0.00 50 1009.7
20260508170555 15 0 0.0 8.0 0.00 0.00 0.00 53 1009.8
20260508170056 15 0 0.0 8.0 0.00 0.00 0.00 53 1010.0
20260508165554 15 0 0.0 8.0 0.00 0.00 0.00 55 1010.0
20260508165056 15 0 0.0 9.7 0.00 0.00 0.00 55 1010.2
20260508164604 16 0 0.0 9.7 0.00 0.00 0.00 55 1010.4
20260508164054 15 0 0.0 19.3 0.00 0.00 0.00 59 1010.3
20260508163556 15 0 0.0 19.3 0.00 0.00 0.00 61 1010.5
20260508163054 15 0 1.6 19.3 0.00 0.00 0.00 59 1010.5
20260508162555 15 0 0.0 12.9 0.00 0.00 0.00 60 1010.5
20260508162055 15 0 0.0 14.5 0.00 0.00 0.00 58 1010.5
20260508161559 15 0 0.0 14.5 0.00 0.00 0.00 58 1010.6
20260508161055 15 0 0.0 14.5 0.00 0.00 0.00 63 1010.4
20260508160555 15 0 0.0 14.5 0.00 0.00 0.00 61 1010.4
20260508160056 15 0 0.0 9.7 0.00 0.00 0.00 60 1010.5
20260508155555 15 0 0.0 4.8 0.00 0.00 0.00 62 1010.5
20260508155055 15 0 0.0 1.6 0.00 0.00 0.00 63 1010.4
20260508154554 15 0 0.0 3.2 0.00 0.00 0.00 61 1010.4
20260508154054 15 0 0.0 3.2 0.00 0.00 0.00 62 1010.6
20260508153557 15 0 0.0 11.3 0.00 0.00 0.00 66 1010.4
20260508153057 14 0 0.0 11.3 0.00 0.00 0.00 67 1010.4
20260508152554 13 0 0.0 8.0 0.00 0.00 0.00 71 1010.4
20260508152054 13 0 0.0 6.4 0.00 0.00 0.00 71 1010.4
20260508151557 13 0 0.0 8.0 0.00 0.00 0.00 72 1010.6
20260508151055 13 0 0.0 12.9 0.00 0.00 0.00 74 1010.7
20260508150555 13 219 0.0 12.9 0.00 0.00 0.00 74 1010.6
20260508150056 13 0 0.0 3.2 0.00 0.00 0.00 76 1010.7
20260508145556 12 0 0.0 9.7 0.00 0.00 0.00 76 1010.7
20260508145055 13 0 0.0 9.7 0.00 0.00 0.00 74 1010.8
20260508144558 13 0 0.0 6.4 0.00 0.00 0.00 74 1010.8
20260508144055 13 0 0.0 6.4 0.00 0.00 0.00 75 1010.8
20260508143556 12 0 0.0 6.4 0.00 0.00 0.00 75 1010.8
20260508143108 12 0 0.0 11.3 0.00 0.00 0.00 73 1010.8
20260508142558 12 0 0.0 14.5 0.00 0.00 0.00 68 1010.8
20260508142055 13 0 0.0 14.5 0.00 0.00 0.00 68 1010.8
20260508141554 13 336 0.0 14.5 0.00 0.00 0.00 70 1010.8
20260508141054 13 0 1.6 14.5 0.00 0.00 0.00 69 1010.7
20260508140557 13 0 0.0 12.9 0.00 0.00 0.00 68 1010.8
20260508140106 13 0 0.0 1.6 0.00 0.00 0.00 69 1010.8
20260508135555 13 0 0.0 1.6 0.00 0.00 0.00 69 1010.8
20260508135054 12 0 0.0 4.8 0.00 0.00 0.00 70 1010.7
20260508134604 12 0 0.0 11.3 0.00 0.00 0.00 72 1010.8
20260508134054 12 0 0.0 11.3 0.00 0.00 0.00 72 1010.7
20260508133555 11 0 0.0 12.9 0.00 0.00 0.00 72 1010.8
20260508133100 11 0 0.0 12.9 0.00 0.00 0.00 74 1010.8
20260508132556 11 0 0.0 3.2 0.00 0.00 0.00 73 1010.9
20260508132055 10 0 0.0 3.2 0.00 0.00 0.00 75 1011.0
20260508131600 10 0 0.0 6.4 0.00 0.00 0.00 76 1010.9
20260508131055 10 0 0.0 6.4 0.00 0.00 0.00 81 1011.0
20260508130554 9 234 0.0 4.8 0.00 0.00 0.00 84 1010.9
20260508130057 8 0 0.0 1.6 0.00 0.00 0.00 88 1011.0
20260508125554 8 0 0.0 1.6 0.00 0.00 0.00 93 1011.0
20260508125057 7 0 0.0 0.0 0.00 0.00 0.00 95 1011.1
20260508124558 7 0 0.0 1.6 0.00 0.00 0.00 97 1011.1